KSFY

Details ICAO KSFY
Name TRI TOWNSHIP
Region United States
Timezone America/Chicago (UTC-5.0)
Plans Departing 1
Arriving 7
Stats Elevation 616 ft / 188 m (AMSL)
Location 42.045839° -90.107942°
Runways 1
Magnetic Variation 2.025° W
Sunrise 2018-05-27 10:31:26 UTC / 2018-05-27 05:31:26 Local
Sunset 2018-05-28 01:26:41 UTC / 2018-05-27 20:26:41 Local
Advertisement - Login to hide

Runways

ID Width Length Bearing (true) Bearing (mag) Surface Threshold Offset Overrun Length
14 60 ft / 18 m 3,999 ft / 1,219 m 135.58° 137.61° Asphalt 0 ft / 0 m 0 ft / 0 m
32 60 ft / 18 m 3,999 ft / 1,219 m 315.59° 317.62° Asphalt 0 ft / 0 m 0 ft / 0 m

Map

Weather


0- 5 10 15 20 25 30 35+ Temperature / ° C

Clouds and Precipitation
Forecast for 2018-05-28 00:00 UTC. Updated 4 hours ago

Ground ~20,000 ft ~40,000 ft Winds

METAR

KSFY 280255Z AUTO 00000KT 10SM CLR 26/21 A2988 RMK AO2 T02550212

TAF

Not found

Frequencies

Recorded 118.65 MHz AWOS 3
Approach 125.95 MHz QUAD CITY APP/DEP
Unicom 122.70 MHz CTAF/UNICOM
Warning: Do not use this data for real-world aviation or navigation. No guarantee of current accuracy is given.